contact:dominique.lefevre@mio.osupytheas.fr, maurice.libes@osupytheas.fr, didier.mallarino@osupytheas.fr
Project:EMSO http://www.emso-fr.org/EMSO-France
Depth: 2436.0 m
Title:EMSO Ligure Ouest : Data MII capteur AQUADOPP
Date,Latitude,Longitude,X_East,Y_North,Z_Up,Amplitude_X,Amplitude_Y,Amplitude_Z,Batterie,SoundSpeed,Heading,Pitch,Roll,Pressure,TIS,Speed,Direction
, degrees North, degrees East, m.s-1, m.s-1,m.s-1, 1, 1, 1, Volt, m.s-1, degree, degree, degree, dbar, degree_C, m.s-1, degree
2024-04-02T00:04:03,42.805,6.029,-0.02,-0.003,-0.004,109.0,108.0,105.0,13.3,1505.2,4.2,-0.7,1.8,2471.842,13.29,0.02,261.5
2024-04-02T00:07:03,42.805,6.029,-0.045,0.005,-0.03,108.0,108.0,106.0,13.4,1505.2,3.0,-0.7,1.8,2471.824,13.29,0.045,276.3
2024-04-02T00:10:03,42.805,6.029,-0.034,0.01,-0.02,107.0,108.0,102.0,13.4,1505.2,357.3,-0.7,1.8,2471.843,13.29,0.035,286.4
2024-04-02T00:13:03,42.805,6.029,-0.034,0.005,-0.017,109.0,106.0,105.0,13.4,1505.2,355.2,-0.8,1.8,2471.849,13.29,0.034,278.4
2024-04-02T00:16:03,42.805,6.029,-0.029,0.009,-0.002,107.0,108.0,104.0,13.4,1505.2,3.5,-0.8,1.8,2471.798,13.29,0.03,287.2
2024-04-02T00:19:03,42.805,6.029,-0.011,0.014,0.006,109.0,107.0,105.0,13.3,1505.2,4.2,-0.8,1.8,2471.804,13.29,0.017,321.8
2024-04-02T00:22:03,42.805,6.029,-0.035,-0.014,-0.015,109.0,108.0,107.0,13.4,1505.2,351.3,-0.8,1.8,2471.828,13.29,0.037,248.2
2024-04-02T00:25:03,42.805,6.029,-0.034,0.014,0.024,108.0,108.0,105.0,13.4,1505.2,1.1,-0.8,1.8,2471.845,13.29,0.036,292.4
2024-04-02T00:28:03,42.805,6.029,-0.001,0.01,0.009,108.0,108.0,106.0,13.4,1505.2,0.5,-0.8,1.8,2471.829,13.29,0.01,354.3
2024-04-02T00:31:03,42.805,6.029,-0.034,-0.003,-0.022,108.0,107.0,105.0,13.3,1505.2,352.0,-0.7,1.8,2471.871,13.29,0.034,265.0
2024-04-02T00:34:03,42.805,6.029,-0.028,0.009,-0.003,108.0,107.0,105.0,13.4,1505.2,358.8,-0.8,1.8,2471.837,13.29,0.029,287.8
2024-04-02T00:37:03,42.805,6.029,-0.029,0.026,-0.01,108.0,108.0,104.0,13.4,1505.2,9.0,-0.8,1.8,2471.81,13.29,0.038,311.9
2024-04-02T00:40:03,42.805,6.029,-0.02,0.016,-0.022,110.0,108.0,105.0,13.3,1505.2,356.2,-0.8,1.8,2471.854,13.29,0.025,308.7
2024-04-02T00:43:03,42.805,6.029,-0.022,0.006,0.024,109.0,108.0,105.0,13.4,1505.2,8.9,-0.7,1.8,2471.782,13.29,0.022,285.3
2024-04-02T00:46:03,42.805,6.029,-0.017,-0.009,-0.014,110.0,108.0,105.0,13.4,1505.2,356.4,-0.7,1.8,2471.845,13.29,0.019,242.1
2024-04-02T00:49:03,42.805,6.029,-0.035,-0.002,0.008,110.0,108.0,106.0,13.3,1505.2,356.5,-0.8,1.9,2471.806,13.29,0.035,266.7
2024-04-02T00:52:03,42.805,6.029,-0.015,-0.005,-0.008,109.0,107.0,105.0,13.3,1505.2,6.7,-0.8,1.8,2471.81,13.29,0.015,251.6
2024-04-02T00:55:03,42.805,6.029,-0.023,-0.001,0.005,109.0,108.0,106.0,13.3,1505.2,2.3,-0.8,1.8,2471.844,13.29,0.023,267.5
2024-04-02T00:58:03,42.805,6.029,-0.018,0.008,-0.003,109.0,108.0,106.0,13.4,1505.2,358.8,-0.8,1.9,2471.75,13.29,0.019,294.0
2024-04-02T01:04:03,42.805,6.029,-0.008,0.03,0.0,109.0,110.0,107.0,13.4,1505.2,7.1,-0.8,1.8,2471.842,13.29,0.031,345.1
2024-04-02T01:07:03,42.805,6.029,-0.032,-0.011,-0.01,110.0,109.0,107.0,13.4,1505.2,354.5,-0.8,1.9,2471.851,13.29,0.033,251.0
2024-04-02T01:10:03,42.805,6.029,-0.02,-0.001,-0.014,109.0,111.0,105.0,13.4,1505.2,352.5,-0.8,1.8,2471.84,13.29,0.02,267.1
2024-04-02T01:13:03,42.805,6.029,-0.039,-0.007,0.009,109.0,108.0,106.0,13.3,1505.2,5.1,-0.7,1.8,2471.838,13.29,0.039,259.8
2024-04-02T01:16:03,42.805,6.029,-0.018,0.018,-0.012,110.0,107.0,106.0,13.4,1505.2,1.6,-0.8,1.8,2471.867,13.29,0.025,315.0
2024-04-02T01:19:03,42.805,6.029,-0.043,0.005,-0.019,109.0,109.0,106.0,13.3,1505.2,6.5,-0.8,1.8,2471.839,13.29,0.043,276.6
2024-04-02T01:22:03,42.805,6.029,-0.028,0.0,0.019,109.0,108.0,105.0,13.4,1505.2,5.3,-0.8,1.8,2471.824,13.29,0.028,270.0
2024-04-02T01:25:03,42.805,6.029,-0.044,0.03,0.002,109.0,109.0,106.0,13.4,1505.2,9.7,-0.7,1.8,2471.842,13.29,0.053,304.3
2024-04-02T01:28:03,42.805,6.029,-0.037,0.006,-0.029,110.0,110.0,105.0,13.4,1505.2,356.9,-0.7,1.8,2471.824,13.29,0.037,279.2
2024-04-02T01:31:03,42.805,6.029,-0.023,0.007,0.021,110.0,108.0,106.0,13.4,1505.2,356.6,-0.8,1.8,2471.808,13.29,0.024,286.9
2024-04-02T01:34:03,42.805,6.029,-0.026,-0.014,-0.011,110.0,108.0,105.0,13.3,1505.2,351.9,-0.8,1.8,2471.821,13.29,0.029,241.7
2024-04-02T01:37:03,42.805,6.029,-0.046,-0.02,0.002,110.0,109.0,106.0,13.4,1505.2,5.1,-0.8,1.8,2471.812,13.29,0.05,246.5
2024-04-02T01:40:03,42.805,6.029,-0.054,0.002,0.008,110.0,109.0,105.0,13.3,1505.2,7.5,-0.7,1.8,2471.836,13.29,0.054,272.1
2024-04-02T01:43:03,42.805,6.029,-0.022,0.012,-0.037,109.0,108.0,106.0,13.4,1505.2,355.0,-0.8,1.8,2471.809,13.29,0.025,298.6
2024-04-02T01:46:03,42.805,6.029,-0.035,0.007,-0.014,110.0,107.0,105.0,13.4,1505.2,3.6,-0.8,1.8,2471.823,13.29,0.035,281.3
2024-04-02T01:49:03,42.805,6.029,-0.034,-0.011,0.006,109.0,108.0,104.0,13.3,1505.2,2.1,-0.7,1.8,2471.842,13.29,0.035,252.1
2024-04-02T01:52:03,42.805,6.029,-0.04,0.012,-0.03,109.0,109.0,105.0,13.3,1505.2,5.2,-0.7,1.8,2471.808,13.29,0.041,286.7
2024-04-02T01:55:03,42.805,6.029,-0.04,0.0,-0.022,110.0,108.0,106.0,13.4,1505.2,7.5,-0.7,1.8,2471.819,13.29,0.04,270.0
2024-04-02T01:58:03,42.805,6.029,-0.024,-0.001,-0.016,109.0,108.0,105.0,13.4,1505.2,352.0,-0.8,1.8,2471.818,13.29,0.024,267.6
2024-04-02T02:04:03,42.805,6.029,-0.011,-0.035,0.011,111.0,109.0,105.0,13.4,1505.2,8.7,-0.7,1.8,2471.855,13.29,0.036,197.4
2024-04-02T02:07:03,42.805,6.029,-0.03,-0.006,-0.004,111.0,109.0,105.0,13.4,1505.2,351.7,-0.8,1.8,2471.83,13.29,0.03,258.7
2024-04-02T02:10:03,42.805,6.029,-0.045,-0.005,-0.025,111.0,109.0,105.0,13.3,1505.2,8.3,-0.8,1.8,2471.829,13.29,0.045,263.7
2024-04-02T02:13:03,42.805,6.029,-0.033,-0.018,0.011,110.0,109.0,106.0,13.4,1505.2,355.1,-0.8,1.8,2471.837,13.29,0.037,241.4
2024-04-02T02:16:03,42.805,6.029,-0.028,-0.006,0.015,110.0,109.0,106.0,13.4,1505.2,2.4,-0.7,1.8,2471.831,13.29,0.028,257.9
2024-04-02T02:19:03,42.805,6.029,-0.026,-0.01,-0.009,109.0,109.0,107.0,13.4,1505.2,6.5,-0.7,1.9,2471.852,13.29,0.027,249.0
2024-04-02T02:22:03,42.805,6.029,-0.044,-0.002,0.003,111.0,109.0,107.0,13.4,1505.2,353.0,-0.8,1.8,2471.851,13.29,0.044,267.4
2024-04-02T02:25:03,42.805,6.029,-0.035,-0.008,0.003,110.0,109.0,108.0,13.4,1505.2,4.7,-0.7,1.8,2471.831,13.29,0.035,257.1
2024-04-02T02:28:03,42.805,6.029,-0.032,0.017,-0.006,110.0,109.0,106.0,13.4,1505.2,2.1,-0.8,1.8,2471.83,13.29,0.036,298.0
2024-04-02T02:31:03,42.805,6.029,-0.049,0.006,-0.002,110.0,109.0,106.0,13.4,1505.2,4.7,-0.8,1.8,2471.858,13.29,0.049,277.0
2024-04-02T02:34:03,42.805,6.029,-0.012,0.007,0.006,110.0,108.0,106.0,13.3,1505.2,355.9,-0.7,1.8,2471.831,13.29,0.013,300.3
2024-04-02T02:37:03,42.805,6.029,-0.016,0.006,0.01,110.0,110.0,106.0,13.4,1505.2,9.6,-0.8,1.8,2471.835,13.29,0.017,290.6
2024-04-02T02:40:03,42.805,6.029,-0.023,0.005,-0.035,110.0,109.0,107.0,13.4,1505.2,1.8,-0.7,1.8,2471.834,13.29,0.023,282.3
2024-04-02T02:43:03,42.805,6.029,-0.013,-0.004,0.009,110.0,110.0,106.0,13.4,1505.2,0.0,-0.8,1.8,2471.842,13.29,0.013,252.9
2024-04-02T02:46:03,42.805,6.029,-0.006,0.003,-0.014,111.0,109.0,106.0,13.4,1505.2,6.5,-0.8,1.8,2471.801,13.29,0.006,296.6
2024-04-02T02:49:03,42.805,6.029,-0.017,0.014,0.015,111.0,109.0,105.0,13.4,1505.2,351.7,-0.7,1.8,2471.831,13.29,0.022,309.5
2024-04-02T02:52:03,42.805,6.029,-0.014,0.007,0.017,110.0,109.0,106.0,13.3,1505.2,358.2,-0.8,1.8,2471.845,13.29,0.015,296.6
2024-04-02T02:55:03,42.805,6.029,-0.033,-0.002,0.023,111.0,109.0,106.0,13.3,1505.2,352.9,-0.8,1.8,2471.826,13.29,0.033,266.5
2024-04-02T02:58:03,42.805,6.029,-0.014,0.031,-0.025,111.0,110.0,107.0,13.3,1505.2,356.5,-0.8,1.8,2471.784,13.29,0.034,335.7
2024-04-02T03:04:03,42.805,6.029,-0.007,0.009,-0.014,110.0,109.0,108.0,13.3,1505.2,3.5,-0.8,1.8,2471.837,13.29,0.011,322.1
2024-04-02T03:07:03,42.805,6.029,-0.031,0.0,-0.008,110.0,110.0,106.0,13.3,1505.2,6.5,-0.7,1.8,2471.857,13.29,0.03,270.0
2024-04-02T03:10:03,42.805,6.029,-0.027,0.005,-0.002,110.0,110.0,106.0,13.4,1505.2,350.3,-0.8,1.8,2471.879,13.29,0.027,280.5
2024-04-02T03:13:03,42.805,6.029,-0.028,-0.007,-0.013,111.0,110.0,105.0,13.4,1505.2,3.5,-0.8,1.8,2471.872,13.29,0.028,256.0
2024-04-02T03:16:03,42.805,6.029,-0.035,-0.006,0.008,111.0,110.0,107.0,13.4,1505.2,8.7,-0.7,1.8,2471.818,13.29,0.035,260.3
2024-04-02T03:19:03,42.805,6.029,-0.02,0.012,-0.005,109.0,108.0,106.0,13.3,1505.2,352.2,-0.8,1.8,2471.849,13.29,0.023,301.0
2024-04-02T03:22:03,42.805,6.029,-0.032,-0.011,-0.011,110.0,108.0,106.0,13.4,1505.2,1.1,-0.7,1.8,2471.804,13.29,0.033,251.0
2024-04-02T03:25:03,42.805,6.029,-0.018,0.014,-0.007,111.0,110.0,105.0,13.4,1505.2,5.9,-0.7,1.8,2471.798,13.29,0.022,307.9
2024-04-02T03:28:03,42.805,6.029,-0.017,-0.009,0.017,110.0,110.0,106.0,13.3,1505.2,353.8,-0.8,1.8,2471.829,13.29,0.019,242.1
2024-04-02T03:31:03,42.805,6.029,-0.043,0.01,-0.001,110.0,109.0,106.0,13.4,1505.2,4.8,-0.8,1.8,2471.819,13.29,0.044,283.1
2024-04-02T03:34:03,42.805,6.029,-0.035,-0.007,-0.026,110.0,108.0,106.0,13.3,1505.2,8.2,-0.7,1.8,2471.838,13.29,0.035,258.7
2024-04-02T03:37:03,42.805,6.029,-0.026,-0.009,-0.009,109.0,109.0,105.0,13.3,1505.2,350.5,-0.8,1.8,2471.904,13.29,0.027,250.9
2024-04-02T03:40:03,42.805,6.029,-0.026,-0.012,0.002,111.0,109.0,106.0,13.4,1505.2,2.8,-0.8,1.8,2471.808,13.29,0.028,245.2
2024-04-02T03:43:03,42.805,6.029,-0.037,-0.009,-0.039,110.0,109.0,105.0,13.4,1505.2,7.1,-0.8,1.8,2471.874,13.29,0.038,256.3
2024-04-02T03:46:03,42.805,6.029,0.006,-0.006,-0.037,111.0,110.0,105.0,13.4,1505.2,7.5,-0.8,1.8,2471.831,13.29,0.008,135.0
2024-04-02T03:49:03,42.805,6.029,-0.037,-0.009,-0.016,110.0,109.0,106.0,13.4,1505.2,0.0,-0.7,1.8,2471.836,13.29,0.038,256.3
2024-04-02T03:52:03,42.805,6.029,-0.045,0.003,0.013,110.0,109.0,106.0,13.3,1505.2,7.4,-0.8,1.8,2471.832,13.29,0.045,273.8
2024-04-02T03:55:03,42.805,6.029,-0.043,-0.004,-0.002,109.0,109.0,107.0,13.3,1505.2,1.2,-0.7,1.8,2471.831,13.29,0.043,264.7
2024-04-02T03:58:03,42.805,6.029,-0.051,-0.005,-0.01,109.0,108.0,106.0,13.4,1505.2,6.0,-0.8,1.8,2471.843,13.29,0.051,264.4
2024-04-02T04:04:03,42.805,6.029,-0.014,-0.02,0.001,110.0,109.0,106.0,13.3,1505.2,2.3,-0.7,1.8,2471.84,13.29,0.024,215.0
2024-04-02T04:07:03,42.805,6.029,-0.058,-0.017,0.027,109.0,110.0,105.0,13.4,1505.2,359.3,-0.7,1.8,2471.824,13.29,0.06,253.7
2024-04-02T04:10:03,42.805,6.029,-0.034,-0.021,-0.04,111.0,110.0,106.0,13.4,1505.2,4.4,-0.7,1.8,2471.838,13.29,0.039,238.3
2024-04-02T04:13:03,42.805,6.029,-0.026,-0.008,-0.009,110.0,109.0,106.0,13.4,1505.2,0.0,-0.8,1.8,2471.803,13.29,0.027,252.9
2024-04-02T04:16:03,42.805,6.029,-0.04,-0.007,0.016,110.0,109.0,106.0,13.4,1505.2,6.0,-0.8,1.8,2471.863,13.29,0.04,260.1
2024-04-02T04:19:03,42.805,6.029,-0.065,-0.008,-0.009,111.0,109.0,106.0,13.4,1505.2,352.5,-0.8,1.8,2471.801,13.29,0.065,263.0
2024-04-02T04:22:03,42.805,6.029,-0.047,-0.002,-0.022,110.0,109.0,106.0,13.4,1505.2,357.1,-0.8,1.8,2471.819,13.29,0.047,267.6
2024-04-02T04:25:03,42.805,6.029,-0.021,-0.001,-0.002,111.0,110.0,105.0,13.3,1505.2,5.4,-0.8,1.8,2471.81,13.29,0.021,267.3
2024-04-02T04:28:03,42.805,6.029,-0.036,-0.007,-0.028,110.0,110.0,107.0,13.3,1505.2,353.3,-0.8,1.8,2471.833,13.29,0.036,259.0
2024-04-02T04:31:03,42.805,6.029,-0.023,-0.008,-0.01,110.0,110.0,107.0,13.4,1505.2,3.5,-0.8,1.8,2471.827,13.29,0.024,250.8
2024-04-02T04:34:03,42.805,6.029,-0.041,-0.014,-0.016,111.0,110.0,106.0,13.4,1505.2,358.1,-0.7,1.8,2471.806,13.29,0.043,251.1
2024-04-02T04:37:03,42.805,6.029,-0.034,0.003,-0.019,111.0,110.0,106.0,13.3,1505.2,357.8,-0.7,1.8,2471.806,13.29,0.034,275.0
2024-04-02T04:40:03,42.805,6.029,-0.031,0.018,-0.008,111.0,110.0,107.0,13.4,1505.2,358.7,-0.8,1.8,2471.824,13.29,0.035,300.1
2024-04-02T04:43:03,42.805,6.029,-0.042,-0.008,-0.009,110.0,110.0,108.0,13.4,1505.2,5.5,-0.8,1.8,2471.804,13.29,0.042,259.2
2024-04-02T04:46:03,42.805,6.029,-0.044,0.01,0.004,112.0,111.0,107.0,13.4,1505.2,3.3,-0.8,1.8,2471.835,13.29,0.045,282.8
2024-04-02T04:49:03,42.805,6.029,-0.032,-0.004,-0.017,111.0,111.0,106.0,13.4,1505.2,358.7,-0.7,1.8,2471.784,13.29,0.032,262.9
2024-04-02T04:52:03,42.805,6.029,-0.045,0.008,0.021,111.0,111.0,107.0,13.4,1505.2,7.3,-0.7,1.8,2471.802,13.29,0.045,280.1
2024-04-02T04:55:03,42.805,6.029,-0.033,0.014,0.021,110.0,110.0,108.0,13.4,1505.2,357.8,-0.8,1.8,2471.787,13.29,0.035,293.0
2024-04-02T04:58:03,42.805,6.029,-0.037,0.016,-0.013,111.0,109.0,107.0,13.3,1505.2,3.9,-0.7,1.8,2471.777,13.29,0.04,293.4
2024-04-02T05:04:03,42.805,6.029,-0.035,0.011,0.003,111.0,110.0,106.0,13.4,1505.2,6.7,-0.8,1.8,2471.844,13.29,0.036,287.4
2024-04-02T05:07:03,42.805,6.029,-0.03,0.011,-0.01,111.0,109.0,106.0,13.4,1505.2,2.4,-0.8,1.8,2471.823,13.29,0.031,290.1
2024-04-02T05:10:03,42.805,6.029,-0.044,0.0,0.02,110.0,110.0,108.0,13.3,1505.2,6.0,-0.8,1.9,2471.796,13.29,0.044,270.0
2024-04-02T05:13:03,42.805,6.029,-0.036,0.006,0.022,111.0,110.0,106.0,13.4,1505.2,351.9,-0.7,1.8,2471.835,13.29,0.036,279.5
2024-04-02T05:16:03,42.805,6.029,-0.032,-0.004,0.008,112.0,110.0,106.0,13.3,1505.2,356.6,-0.8,1.8,2471.794,13.29,0.032,262.9
2024-04-02T05:19:03,42.805,6.029,-0.046,0.018,0.001,111.0,110.0,107.0,13.3,1505.2,2.1,-0.8,1.8,2471.789,13.29,0.049,291.4
2024-04-02T05:22:03,42.805,6.029,-0.031,0.021,-0.017,111.0,110.0,106.0,13.4,1505.2,3.5,-0.8,1.8,2471.76,13.29,0.037,304.1
2024-04-02T05:25:03,42.805,6.029,-0.039,0.019,-0.001,110.0,109.0,107.0,13.3,1505.2,3.1,-0.8,1.8,2471.813,13.29,0.043,296.0
2024-04-02T05:28:03,42.805,6.029,-0.035,0.009,-0.048,110.0,111.0,107.0,13.4,1505.2,4.8,-0.8,1.8,2471.771,13.29,0.036,284.4
2024-04-02T05:31:03,42.805,6.029,-0.024,0.016,-0.012,109.0,110.0,106.0,13.3,1505.2,4.1,-0.8,1.8,2471.755,13.29,0.028,303.7
2024-04-02T05:34:03,42.805,6.029,-0.031,0.008,0.007,111.0,109.0,107.0,13.4,1505.2,7.8,-0.7,1.8,2471.791,13.29,0.032,284.5
2024-04-02T05:37:03,42.805,6.029,-0.037,-0.012,-0.005,110.0,111.0,106.0,13.4,1505.2,351.7,-0.8,1.8,2471.79,13.29,0.038,252.0
2024-04-02T05:40:03,42.805,6.029,-0.035,0.006,0.0,111.0,109.0,106.0,13.4,1505.2,1.1,-0.8,1.8,2471.8,13.29,0.035,279.7
2024-04-02T05:43:03,42.805,6.029,-0.03,0.008,-0.022,110.0,110.0,107.0,13.4,1505.2,5.1,-0.8,1.8,2471.804,13.29,0.031,284.9
2024-04-02T05:46:03,42.805,6.029,-0.057,0.004,0.0,110.0,109.0,106.0,13.4,1505.2,354.9,-0.7,1.8,2471.801,13.29,0.057,274.0
2024-04-02T05:49:03,42.805,6.029,-0.041,0.011,-0.017,111.0,109.0,106.0,13.4,1505.2,3.4,-0.7,1.8,2471.792,13.29,0.042,285.0
2024-04-02T05:52:03,42.805,6.029,-0.048,0.019,-0.04,110.0,110.0,106.0,13.4,1505.2,358.2,-0.7,1.8,2471.762,13.29,0.051,291.6
2024-04-02T05:55:03,42.805,6.029,-0.027,-0.003,0.03,110.0,109.0,106.0,13.4,1505.2,353.9,-0.7,1.8,2471.797,13.29,0.027,263.7
2024-04-02T05:58:03,42.805,6.029,-0.037,0.007,-0.02,111.0,109.0,106.0,13.3,1505.2,4.7,-0.8,1.8,2471.776,13.29,0.037,280.7
2024-04-02T06:04:03,42.805,6.029,-0.046,-0.005,-0.009,109.0,109.0,108.0,13.3,1505.2,1.0,-0.7,1.8,2471.772,13.29,0.046,263.8
2024-04-02T06:07:03,42.805,6.029,-0.023,0.0,0.007,110.0,109.0,106.0,13.4,1505.2,357.5,-0.8,1.8,2471.776,13.29,0.023,270.0
2024-04-02T06:10:03,42.805,6.029,-0.04,0.004,-0.003,110.0,109.0,106.0,13.3,1505.2,358.1,-0.8,1.8,2471.777,13.29,0.04,275.7
2024-04-02T06:13:03,42.805,6.029,-0.026,0.003,0.025,110.0,110.0,106.0,13.4,1505.2,356.3,-0.8,1.8,2471.763,13.29,0.026,276.6
2024-04-02T06:16:03,42.805,6.029,-0.025,-0.003,0.002,110.0,109.0,105.0,13.4,1505.2,359.4,-0.8,1.8,2471.76,13.29,0.025,263.2
2024-04-02T06:19:03,42.805,6.029,-0.033,0.029,-0.007,110.0,110.0,106.0,13.3,1505.2,352.7,-0.7,1.8,2471.809,13.29,0.043,311.3
2024-04-02T06:22:03,42.805,6.029,-0.038,-0.016,-0.033,110.0,109.0,106.0,13.4,1505.2,4.8,-0.8,1.8,2471.751,13.29,0.041,247.2
2024-04-02T06:25:03,42.805,6.029,-0.025,0.001,0.006,110.0,109.0,106.0,13.4,1505.2,355.2,-0.7,1.8,2471.754,13.29,0.025,272.3
2024-04-02T06:28:03,42.805,6.029,-0.04,0.017,-0.009,111.0,110.0,105.0,13.4,1505.2,356.1,-0.8,1.8,2471.802,13.29,0.043,293.0
2024-04-02T06:31:03,42.805,6.029,-0.03,0.001,-0.008,110.0,110.0,106.0,13.4,1505.2,1.2,-0.8,1.8,2471.782,13.29,0.03,271.9
2024-04-02T06:34:03,42.805,6.029,-0.026,-0.001,-0.003,110.0,110.0,106.0,13.3,1505.2,1.8,-0.8,1.8,2471.755,13.29,0.026,267.8
2024-04-02T06:37:03,42.805,6.029,-0.019,-0.034,0.008,110.0,110.0,106.0,13.4,1505.2,351.4,-0.8,1.8,2471.758,13.29,0.038,209.2
2024-04-02T06:40:03,42.805,6.029,-0.034,0.004,0.0,111.0,109.0,107.0,13.3,1505.2,3.5,-0.7,1.8,2471.758,13.29,0.034,276.7
2024-04-02T06:43:03,42.805,6.029,-0.039,-0.002,-0.035,110.0,110.0,107.0,13.4,1505.2,4.3,-0.7,1.8,2471.779,13.29,0.039,267.1
2024-04-02T06:46:03,42.805,6.029,-0.014,-0.01,0.002,110.0,111.0,107.0,13.4,1505.2,351.5,-0.7,1.8,2471.761,13.29,0.017,234.5
2024-04-02T06:49:03,42.805,6.029,-0.03,0.013,0.0,110.0,109.0,106.0,13.4,1505.2,357.5,-0.7,1.8,2471.743,13.29,0.032,293.4
2024-04-02T06:52:03,42.805,6.029,-0.036,-0.016,-0.012,111.0,110.0,107.0,13.4,1505.2,1.1,-0.8,1.8,2471.721,13.29,0.039,246.0
2024-04-02T06:55:03,42.805,6.029,-0.008,0.011,0.002,110.0,110.0,106.0,13.4,1505.2,358.3,-0.7,1.8,2471.763,13.29,0.013,324.0
2024-04-02T06:58:03,42.805,6.029,-0.044,0.002,0.009,110.0,109.0,106.0,13.4,1505.2,5.3,-0.8,1.8,2471.768,13.29,0.044,272.6
2024-04-02T07:04:03,42.805,6.029,-0.022,-0.011,-0.011,111.0,110.0,106.0,13.4,1505.2,5.4,-0.8,1.8,2471.803,13.29,0.024,243.4
2024-04-02T07:07:03,42.805,6.029,-0.029,-0.011,0.003,110.0,108.0,106.0,13.4,1505.2,359.3,-0.7,1.8,2471.762,13.29,0.031,249.2
2024-04-02T07:10:03,42.805,6.029,-0.022,-0.012,0.008,110.0,110.0,106.0,13.4,1505.2,1.2,-0.7,1.8,2471.784,13.29,0.025,241.4
2024-04-02T07:13:03,42.805,6.029,-0.027,-0.011,-0.018,110.0,109.0,106.0,13.4,1505.2,8.7,-0.7,1.8,2471.736,13.29,0.029,247.8
2024-04-02T07:16:03,42.805,6.029,-0.033,-0.012,-0.006,111.0,110.0,105.0,13.4,1505.2,351.2,-0.7,1.9,2471.709,13.29,0.035,250.0
2024-04-02T07:19:03,42.805,6.029,-0.039,-0.012,-0.024,110.0,110.0,106.0,13.4,1505.2,357.1,-0.7,1.8,2471.756,13.29,0.04,252.9
2024-04-02T07:22:03,42.805,6.029,-0.035,-0.013,-0.007,111.0,110.0,107.0,13.3,1505.2,8.7,-0.8,1.8,2471.771,13.29,0.037,249.6
2024-04-02T07:25:03,42.805,6.029,-0.016,0.001,0.005,111.0,109.0,106.0,13.4,1505.2,0.5,-0.8,1.8,2471.728,13.29,0.016,273.6
2024-04-02T07:28:03,42.805,6.029,-0.031,0.004,-0.003,111.0,111.0,107.0,13.4,1505.2,4.7,-0.7,1.9,2471.821,13.29,0.031,277.3
2024-04-02T07:31:03,42.805,6.029,-0.025,-0.013,-0.013,111.0,109.0,106.0,13.4,1505.2,356.5,-0.8,1.8,2471.76,13.29,0.028,242.5
2024-04-02T07:34:03,42.805,6.029,-0.011,0.006,0.018,111.0,110.0,106.0,13.4,1505.2,5.0,-0.8,1.8,2471.729,13.29,0.012,298.6
2024-04-02T07:37:03,42.805,6.029,-0.029,-0.005,0.016,110.0,109.0,107.0,13.4,1505.2,3.5,-0.8,1.8,2471.753,13.29,0.029,260.2
2024-04-02T07:40:03,42.805,6.029,-0.05,0.004,-0.026,110.0,111.0,106.0,13.4,1505.2,358.8,-0.8,1.8,2471.767,13.29,0.05,274.6
2024-04-02T07:43:03,42.805,6.029,-0.025,-0.014,-0.03,110.0,110.0,106.0,13.4,1505.2,8.2,-0.7,1.8,2471.773,13.29,0.028,240.7
2024-04-02T07:46:03,42.805,6.029,-0.019,-0.013,-0.005,110.0,110.0,106.0,13.4,1505.2,352.3,-0.7,1.8,2471.756,13.29,0.023,235.6
2024-04-02T07:49:03,42.805,6.029,-0.025,0.003,-0.01,111.0,110.0,106.0,13.4,1505.2,356.5,-0.7,1.8,2471.804,13.29,0.025,276.8
2024-04-02T07:52:03,42.805,6.029,-0.035,-0.01,-0.018,110.0,109.0,106.0,13.4,1505.2,2.2,-0.8,1.8,2471.712,13.29,0.036,254.1
2024-04-02T07:55:03,42.805,6.029,-0.014,-0.003,-0.006,111.0,109.0,107.0,13.4,1505.2,4.7,-0.7,1.8,2471.772,13.29,0.014,257.9
2024-04-02T07:58:03,42.805,6.029,-0.028,-0.01,-0.004,111.0,111.0,107.0,13.3,1505.2,2.3,-0.8,1.8,2471.753,13.29,0.029,250.4
2024-04-02T08:04:03,42.805,6.029,-0.017,-0.012,0.018,110.0,109.0,106.0,13.3,1505.2,358.1,-0.7,1.8,2471.806,13.29,0.02,234.8
2024-04-02T08:07:03,42.805,6.029,-0.026,0.0,-0.009,110.0,110.0,107.0,13.4,1505.2,358.2,-0.7,1.8,2471.745,13.29,0.026,270.0
2024-04-02T08:10:03,42.805,6.029,-0.018,-0.009,-0.028,110.0,109.0,106.0,13.4,1505.2,350.1,-0.8,1.8,2471.721,13.29,0.02,243.4
2024-04-02T08:13:03,42.805,6.029,-0.014,-0.015,-0.014,110.0,110.0,107.0,13.4,1505.2,4.1,-0.8,1.8,2471.801,13.29,0.02,223.0
2024-04-02T08:16:03,42.805,6.029,0.003,-0.007,0.013,111.0,109.0,107.0,13.4,1505.2,355.7,-0.7,1.8,2471.755,13.29,0.007,156.8
2024-04-02T08:19:06,42.805,6.029,-0.013,-0.009,-0.016,110.0,109.0,108.0,13.3,1505.2,8.2,-0.8,1.8,2471.788,13.29,0.015,235.3
2024-04-02T08:22:03,42.805,6.029,-0.029,0.0,-0.007,111.0,109.0,107.0,13.3,1505.2,8.9,-0.8,1.8,2471.749,13.29,0.028,270.0
2024-04-02T08:25:03,42.805,6.029,-0.026,-0.015,0.004,110.0,109.0,105.0,13.3,1505.2,355.7,-0.8,1.8,2471.771,13.29,0.03,240.0
2024-04-02T08:28:03,42.805,6.029,-0.021,-0.007,-0.004,110.0,110.0,106.0,13.4,1505.2,3.0,-0.7,1.8,2471.755,13.29,0.022,251.6
2024-04-02T08:31:03,42.805,6.029,-0.024,-0.025,-0.015,111.0,109.0,106.0,13.4,1505.2,352.8,-0.8,1.8,2471.772,13.29,0.034,223.8
2024-04-02T08:34:03,42.805,6.029,-0.028,-0.017,-0.019,110.0,111.0,106.0,13.4,1505.2,4.2,-0.8,1.8,2471.745,13.29,0.032,238.7
2024-04-02T08:37:03,42.805,6.029,-0.018,-0.007,-0.009,111.0,110.0,106.0,13.4,1505.2,9.3,-0.8,1.8,2471.758,13.29,0.019,248.8
2024-04-02T08:40:03,42.805,6.029,-0.015,-0.012,0.029,110.0,109.0,106.0,13.4,1505.2,9.2,-0.7,1.8,2471.751,13.29,0.019,231.3
2024-04-02T08:43:03,42.805,6.029,-0.037,-0.026,0.008,110.0,109.0,106.0,13.3,1505.2,3.2,-0.7,1.8,2471.767,13.29,0.045,234.9
2024-04-02T08:46:03,42.805,6.029,-0.025,-0.038,-0.019,110.0,109.0,107.0,13.3,1505.2,350.9,-0.8,1.8,2471.74,13.29,0.045,213.3
2024-04-02T08:49:03,42.805,6.029,-0.079,-0.01,-0.032,110.0,109.0,105.0,13.4,1505.2,3.9,-0.8,1.8,2471.733,13.29,0.079,262.8
2024-04-02T08:52:03,42.805,6.029,-0.055,-0.017,-0.004,110.0,109.0,107.0,13.3,1505.2,355.2,-0.8,1.9,2471.758,13.29,0.057,252.8
2024-04-02T08:55:03,42.805,6.029,-0.024,-0.005,-0.004,111.0,109.0,106.0,13.4,1505.2,356.1,-0.8,1.8,2471.758,13.29,0.024,258.2
2024-04-02T08:58:03,42.805,6.029,-0.046,-0.009,0.019,111.0,110.0,107.0,13.3,1505.2,3.9,-0.8,1.8,2471.757,13.29,0.046,258.9
2024-04-02T09:04:03,42.805,6.029,-0.055,0.008,0.0,111.0,110.0,105.0,13.3,1505.2,358.9,-0.8,1.8,2471.824,13.29,0.055,278.3
2024-04-02T09:07:03,42.805,6.029,-0.016,0.0,-0.023,110.0,110.0,106.0,13.3,1505.2,1.2,-0.8,1.8,2471.738,13.29,0.016,270.0
2024-04-02T09:10:03,42.805,6.029,-0.039,-0.004,-0.008,110.0,109.0,106.0,13.3,1505.2,355.9,-0.8,1.8,2471.783,13.29,0.039,264.1
2024-04-02T09:13:03,42.805,6.029,-0.039,-0.009,-0.032,111.0,109.0,106.0,13.4,1505.2,7.8,-0.7,1.8,2471.806,13.29,0.04,257.0
2024-04-02T09:16:03,42.805,6.029,-0.036,-0.002,-0.027,109.0,109.0,105.0,13.3,1505.2,4.2,-0.8,1.8,2471.772,13.29,0.036,266.8
2024-04-02T09:19:07,42.805,6.029,-0.033,0.0,-0.004,110.0,109.0,107.0,13.3,1505.2,2.4,-0.7,1.8,2471.774,13.29,0.033,270.0
2024-04-02T09:22:03,42.805,6.029,-0.04,-0.014,-0.015,109.0,110.0,105.0,13.3,1505.2,4.5,-0.8,1.8,2471.754,13.29,0.042,250.7
2024-04-02T09:25:03,42.805,6.029,-0.044,-0.033,0.005,109.0,110.0,106.0,13.3,1505.2,351.3,-0.8,1.8,2471.771,13.29,0.055,233.1
2024-04-02T09:28:03,42.805,6.029,-0.03,-0.005,0.005,109.0,111.0,108.0,13.4,1505.2,2.3,-0.8,1.8,2471.772,13.29,0.03,260.5
2024-04-02T09:31:03,42.805,6.029,-0.059,-0.012,0.014,112.0,110.0,107.0,13.3,1505.2,8.9,-0.7,1.8,2471.793,13.29,0.06,258.5
2024-04-02T09:34:03,42.805,6.029,-0.036,-0.021,0.018,110.0,109.0,107.0,13.4,1505.2,5.1,-0.8,1.8,2471.761,13.29,0.041,239.7
2024-04-02T09:37:03,42.805,6.029,-0.033,-0.019,0.004,110.0,110.0,106.0,13.3,1505.2,3.0,-0.7,1.8,2471.756,13.29,0.038,240.1
2024-04-02T09:40:03,42.805,6.029,-0.055,-0.004,0.013,111.0,109.0,107.0,13.4,1505.2,355.0,-0.7,1.8,2471.79,13.29,0.055,265.8
2024-04-02T09:43:03,42.805,6.029,-0.046,-0.003,0.02,110.0,109.0,106.0,13.3,1505.2,355.2,-0.8,1.8,2471.765,13.29,0.046,266.3
2024-04-02T09:46:03,42.805,6.029,-0.043,-0.012,-0.011,110.0,109.0,106.0,13.4,1505.2,1.1,-0.8,1.8,2471.755,13.29,0.044,254.4
2024-04-02T09:49:03,42.805,6.029,-0.021,-0.011,-0.013,110.0,109.0,107.0,13.3,1505.2,4.5,-0.7,1.8,2471.715,13.29,0.023,242.4
2024-04-02T09:52:03,42.805,6.029,-0.049,-0.012,0.0,111.0,109.0,106.0,13.4,1505.2,2.7,-0.8,1.8,2471.793,13.29,0.05,256.2
2024-04-02T09:55:03,42.805,6.029,-0.058,-0.028,0.0,110.0,110.0,107.0,13.4,1505.2,352.5,-0.8,1.8,2471.77,13.29,0.064,244.2
2024-04-02T09:58:03,42.805,6.029,-0.055,-0.008,-0.008,111.0,109.0,106.0,13.4,1505.2,358.8,-0.8,1.8,2471.756,13.29,0.055,261.7